Flag for Switzerland Weather past 2 weeks in Stans, Nidwalden, Switzerland

Now
45 °F

Quite cool.


Feels Like: 45 °F
Forecast: 40 / 62 °F
Wind: 2 mph from South

Location: Giswil

Current Time: Oct 24, 2014 at 12:51:45 PM

Latest Report: Oct 24, 2014 at 12:00 PM


Visibility: N/A

Pressure: 30.22 "Hg

Humidity: 77%

Dew point: 38 °F

Location of StansLocation

Historic Weather in Stans — Graph

°F

Stans temperature yesterday

Maximum temperature yesterday: 52 °F (at 3:00 PM)
Minimum temperature yesterday: 36 °F (at 11:00 PM)
Average temperature yesterday: 45 °F

Past Weeks' High & Low Weather Summary

 TemperatureHumidityPressure
High74 °F (Oct 9, 4:00 PM)100% (Oct 10, 4:00 AM)30.34 "Hg (Oct 10, 4:00 AM)
Low32 °F (Oct 24, 6:00 AM)40% (Oct 21, 6:00 PM)29.75 "Hg (Oct 21, 7:00 PM)
Average54 °F89%30.03 "Hg
* Reported Oct 9 11:00 AM — Oct 24 11:00 AM, Stans, Weather by CustomWeather, © 2014

Note: Actual official high and low records may vary slightly from our data, if they occured in-between our weather recording intervals... More about our weather records

Advertising

Stans weather history for previous 24 hours

 ConditionsComfort  
Time TempWeatherWind HumidityBarometerVisibility
11:00 AM
Oct 24
41 °FQuite cool.1 mph88%30.25 "HgN/A
10:00 AM33 °FChilly.1 mph100%30.28 "HgN/A
9:00 AM32 °FChilly.1 mph100%30.28 "HgN/A
8:00 AM33 °FChilly.3 mph100%30.26 "HgN/A
7:00 AM32 °FChilly.2 mph99%30.27 "HgN/A
6:00 AM32 °FChilly.3 mph99%30.27 "HgN/A
5:00 AM33 °FChilly.2 mph99%30.29 "HgN/A
4:00 AM33 °FChilly.3 mph99%30.29 "HgN/A
3:00 AM33 °FChilly.2 mph98%30.29 "HgN/A
2:00 AM33 °FChilly.1 mph99%30.30 "HgN/A
1:00 AM35 °FChilly.No wind97%30.31 "HgN/A
12:00 AM36 °FChilly.2 mph97%30.32 "HgN/A
11:00 PM
Oct 23
36 °FChilly.2 mph97%30.32 "HgN/A
10:00 PM36 °FChilly.1 mph96%30.31 "HgN/A
9:00 PM38 °FChilly.3 mph93%30.30 "HgN/A
8:00 PM40 °FQuite cool.2 mph91%30.30 "HgN/A
7:00 PM44 °FQuite cool.2 mph83%30.28 "HgN/A
6:00 PM50 °FCool.5 mph59%30.26 "HgN/A
5:00 PM52 °FCool.6 mph55%30.25 "HgN/A
4:00 PM52 °FCool.2 mph50%30.25 "HgN/A
3:00 PM52 °FCool.3 mph53%30.27 "HgN/A
2:00 PM52 °FCool.5 mph57%30.30 "HgN/A
1:00 PM51 °FCool.3 mph56%30.32 "HgN/A
12:00 PM48 °FCool.2 mph61%30.34 "HgN/A
Weather by CustomWeather, © 2014

See weather overviewHow to use our weather pages